QPF
0.12 0.11 0.12 0.09 0.06 0.04 0.04 0.04 0.04 0.04 0.04 0.04 0.03 0.02 0.02 0.04 0.05 0.07 0.07 0.05 0.04 0.04 0.04 0.06 0.09 0.10 0.10 0.09 0.10 0.09 0.08 0.13 0.14 0.11 0.09 0.09 0.09 0.07 0.07 0.09 0.10 0.09 0.07
0.13 0.12 0.10 0.08 0.06 0.04 0.03 0.04 0.03 0.04 0.05 0.04 0.03 0.03 0.03 0.02 0.03 0.04 0.05 0.05 0.05 0.04 0.03 0.04 0.05 0.06 0.07 0.07 0.08 0.09 0.11 0.16 0.17 0.13 0.10 0.09 0.09 0.09 0.08 0.09 0.09 0.08 0.07
0.13 0.11 0.07 0.06 0.05 0.04 0.03 0.04 0.04 0.05 0.05 0.04 0.03 0.04 0.04 0.04 0.03 0.03 0.03 0.04 0.05 0.05 0.05 0.05 0.04 0.05 0.06 0.07 0.07 0.07 0.07 0.13 0.15 0.11 0.10 0.09 0.08 0.08 0.09 0.09 0.08 0.06 0.05
0.12 0.10 0.07 0.06 0.05 0.04 0.04 0.04 0.05 0.05 0.05 0.05 0.05 0.04 0.04 0.04 0.03 0.03 0.04 0.04 0.05 0.05 0.06 0.05 0.04 0.04 0.05 0.05 0.07 0.07 0.07 0.11 0.13 0.09 0.08 0.08 0.08 0.09 0.09 0.09 0.08 0.06 0.04
0.11 0.09 0.07 0.05 0.04 0.04 0.05 0.05 0.05 0.05 0.05 0.05 0.04 0.04 0.04 0.03 0.03 0.03 0.04 0.04 0.05 0.04 0.05 0.04 0.05 0.05 0.05 0.05 0.06 0.06 0.05 0.07 0.09 0.08 0.07 0.06 0.06 0.07 0.07 0.06 0.06 0.06 0.05
0.10 0.08 0.07 0.05 0.05 0.05 0.06 0.05 0.05 0.06 0.05 0.06 0.04 0.03 0.03 0.03 0.03 0.04 0.04 0.04 0.04 0.03 0.04 0.04 0.05 0.06 0.05 0.05 0.04 0.04 0.04 0.05 0.05 0.07 0.07 0.07 0.06 0.05 0.04 0.04 0.04 0.04 0.04
0.11 0.09 0.06 0.05 0.04 0.04 0.05 0.05 0.05 0.05 0.05 0.05 0.05 0.05 0.04 0.04 0.04 0.04 0.04 0.05 0.04 0.04 0.05 0.05 0.05 0.05 0.05 0.04 0.04 0.05 0.05 0.04 0.04 0.05 0.07 0.08 0.06 0.05 0.04 0.03 0.03 0.03 0.03
0.09 0.07 0.04 0.03 0.03 0.03 0.03 0.04 0.05 0.05 0.04 0.04 0.05 0.05 0.05 0.05 0.06 0.04 0.04 0.05 0.04 0.03 0.04 0.05 0.05 0.04 0.03 0.04 0.04 0.05 0.06 0.05 0.04 0.05 0.06 0.06 0.06 0.05 0.04 0.04 0.04 0.04 0.04
0.06 0.05 0.04 0.03 0.04 0.03 0.03 0.03 0.03 0.04 0.04 0.04 0.04 0.04 0.04 0.05 0.06 0.05 0.05 0.04 0.04 0.03 0.03 0.04 0.04 0.04 0.02 0.03 0.03 0.04 0.05 0.05 0.04 0.05 0.05 0.05 0.06 0.06 0.05 0.05 0.05 0.04 0.04
0.07 0.05 0.04 0.04 0.03 0.03 0.03 0.02 0.02 0.03 0.05 0.05 0.04 0.03 0.03 0.04 0.06 0.06 0.07 0.05 0.04 0.03 0.02 0.03 0.03 0.04 0.03 0.03 0.03 0.03 0.04 0.05 0.05 0.05 0.05 0.05 0.06 0.06 0.05 0.06 0.06 0.06 0.06
0.08 0.05 0.03 0.03 0.03 0.03 0.04 0.03 0.03 0.03 0.05 0.05 0.03 0.02 0.02 0.03 0.04 0.05 0.06 0.06 0.04 0.03 0.03 0.03 0.03 0.03 0.02 0.03 0.03 0.04 0.04 0.06 0.07 0.04 0.03 0.03 0.05 0.05 0.05 0.05 0.05 0.06 0.08
0.08 0.05 0.04 0.04 0.04 0.04 0.04 0.05 0.05 0.04 0.05 0.05 0.04 0.03 0.03 0.04 0.05 0.06 0.06 0.06 0.05 0.04 0.02 0.02 0.02 0.02 0.02 0.02 0.02 0.02 0.04 0.03 0.05 0.04 0.02 0.01 0.03 0.04 0.03 0.03 0.03 0.03 0.03
0.07 0.06 0.05 0.05 0.05 0.04 0.04 0.04 0.04 0.03 0.04 0.05 0.04 0.04 0.04 0.04 0.04 0.04 0.04 0.05 0.04 0.04 0.03 0.02 0.01 0.03 0.04 0.01 0.01 0.01 0.03 0.03 0.02 0.02 0.01 0.02 0.01 0.02 0.03 0.03 0.04 0.03 0.03
0.07 0.06 0.05 0.05 0.05 0.04 0.02 0.02 0.03 0.03 0.03 0.03 0.02 0.03 0.04 0.04 0.03 0.03 0.03 0.03 0.03 0.03 0.03 0.02 0.01 0.02 0.03 0.01 0.01 0.01 0.02 0.03 0.02 0.02 0.01 0.01 0.01 0.01 0.02 0.03 0.04 0.03 0.03
0.04 0.04 0.03 0.03 0.03 0.04 0.03 0.03 0.04 0.03 0.04 0.03 0.02 0.03 0.03 0.02 0.02 0.02 0.02 0.02 0.03 0.03 0.02 0.02 0.02 0.02 0.02 0.02 0.02 0.02 0.02 0.02 0.02 0.02 0.01 0.01 0.01 0.01 0.01 0.02 0.03 0.02 0.02
0.04 0.03 0.03 0.03 0.03 0.03 0.03 0.03 0.03 0.03 0.04 0.04 0.03 0.02 0.02 0.01 0.01 0.01 0.01 0.01 0.02 0.02 0.02 0.02 0.01 0.01 0.02 0.02 0.02 0.02 0.02 0.02 0.02 0.01 0.02 0.01 0.01 0.01 0.00 0.00 0.01 0.01 0.01
0.04 0.03 0.03 0.03 0.02 0.02 0.03 0.03 0.03 0.03 0.04 0.04 0.03 0.02 0.02 0.02 0.02 0.01 0.01 0.01 0.01 0.02 0.02 0.02 0.02 0.02 0.02 0.03 0.02 0.02 0.02 0.03 0.02 0.02 0.02 0.01 0.01 0.01 0.00 0.00 0.00 0.01 0.01
0.04 0.04 0.03 0.02 0.02 0.02 0.02 0.02 0.03 0.03 0.03 0.04 0.03 0.02 0.02 0.02 0.03 0.02 0.01 0.01 0.01 0.02 0.02 0.03 0.02 0.02 0.03 0.03 0.02 0.03 0.02 0.02 0.02 0.03 0.02 0.02 0.02 0.02 0.01 0.01 0.01 0.01 0.01
0.03 0.03 0.03 0.02 0.02 0.02 0.02 0.02 0.02 0.03 0.03 0.02 0.01 0.01 0.02 0.02 0.03 0.02 0.02 0.02 0.01 0.01 0.02 0.03 0.02 0.02 0.02 0.03 0.03 0.03 0.02 0.02 0.01 0.01 0.01 0.02 0.03 0.03 0.02 0.02 0.02 0.02 0.01
0.02 0.02 0.02 0.02 0.03 0.02 0.02 0.01 0.01 0.02 0.03 0.02 0.01 0.01 0.02 0.02 0.02 0.02 0.02 0.03 0.03 0.02 0.02 0.02 0.02 0.02 0.03 0.03 0.02 0.03 0.03 0.03 0.02 0.01 0.01 0.01 0.02 0.02 0.02 0.02 0.02 0.02 0.02
0.01 0.02 0.03 0.02 0.02 0.02 0.02 0.01 0.01 0.02 0.03 0.03 0.03 0.02 0.01 0.01 0.01 0.02 0.01 0.02 0.02 0.02 0.02 0.02 0.02 0.02 0.04 0.03 0.02 0.02 0.03 0.03 0.03 0.02 0.02 0.01 0.01 0.01 0.02 0.02 0.02 0.01 0.01
0.02 0.01 0.01 0.01 0.02 0.01 0.02 0.02 0.02 0.02 0.03 0.03 0.03 0.02 0.01 0.01 0.01 0.01 0.01 0.01 0.01 0.02 0.02 0.02 0.02 0.02 0.03 0.03 0.02 0.02 0.02 0.03 0.03 0.03 0.03 0.02 0.02 0.01 0.02 0.02 0.01 0.01 0.01
0.02 0.01 0.01 0.03 0.03 0.02 0.01 0.02 0.03 0.03 0.02 0.02 0.03 0.03 0.01 0.01 0.01 0.01 0.01 0.01 0.01 0.01 0.01 0.03 0.03 0.02 0.02 0.02 0.03 0.02 0.02 0.03 0.03 0.03 0.05 0.05 0.03 0.03 0.02 0.02 0.02 0.02 0.01
0.03 0.03 0.03 0.05 0.06 0.03 0.02 0.01 0.02 0.03 0.02 0.03 0.03 0.03 0.03 0.02 0.02 0.01 0.01 0.01 0.01 0.01 0.01 0.02 0.03 0.02 0.02 0.02 0.03 0.03 0.04 0.05 0.06 0.05 0.05 0.05 0.04 0.04 0.03 0.02 0.02 0.02 0.02
0.05 0.06 0.05 0.06 0.07 0.04 0.02 0.02 0.02 0.02 0.02 0.03 0.03 0.03 0.03 0.03 0.03 0.03 0.02 0.01 0.01 0.02 0.02 0.02 0.03 0.02 0.02 0.02 0.02 0.04 0.05 0.05 0.05 0.06 0.07 0.07 0.06 0.05 0.04 0.03 0.02 0.01 0.01
0.02 0.02 0.03 0.03 0.04 0.03 0.03 0.01 0.01 0.01 0.02 0.02 0.02 0.02 0.03 0.03 0.03 0.03 0.02 0.02 0.02 0.02 0.02 0.02 0.02 0.01 0.01 0.01 0.02 0.03 0.04 0.05 0.05 0.06 0.07 0.07 0.05 0.04 0.03 0.02 0.01 0.01 0.01
MSLP
1013.37 1013.41 1013.42 1013.43 1013.43 1013.47 1013.53 1013.62 1013.72 1013.81 1013.87 1013.87 1013.81 1013.71 1013.59 1013.50 1013.47 1013.53 1013.67 1013.91 1014.19 1014.48 1014.76 1014.98 1015.15 1015.28 1015.40 1015.52 1015.68 1015.89 1016.15 1016.42 1016.67 1016.88 1017.01 1017.06 1017.03 1016.95 1016.83 1016.71 1016.62 1016.56 1016.55
1013.26 1013.27 1013.28 1013.27 1013.28 1013.33 1013.40 1013.51 1013.64 1013.77 1013.86 1013.91 1013.90 1013.84 1013.75 1013.66 1013.61 1013.63 1013.71 1013.86 1014.05 1014.27 1014.48 1014.67 1014.83 1014.98 1015.13 1015.31 1015.52 1015.78 1016.06 1016.35 1016.62 1016.83 1016.96 1017.00 1016.96 1016.87 1016.74 1016.61 1016.50 1016.42 1016.38
1013.18 1013.18 1013.18 1013.17 1013.19 1013.24 1013.34 1013.47 1013.62 1013.79 1013.93 1014.03 1014.08 1014.07 1014.03 1013.97 1013.91 1013.89 1013.91 1013.97 1014.07 1014.19 1014.33 1014.47 1014.62 1014.77 1014.95 1015.17 1015.42 1015.71 1016.02 1016.33 1016.59 1016.80 1016.92 1016.96 1016.92 1016.83 1016.70 1016.57 1016.45 1016.36 1016.31
1013.10 1013.09 1013.08 1013.07 1013.09 1013.14 1013.24 1013.37 1013.55 1013.74 1013.93 1014.09 1014.22 1014.30 1014.33 1014.32 1014.30 1014.27 1014.24 1014.23 1014.25 1014.28 1014.34 1014.42 1014.53 1014.67 1014.85 1015.09 1015.36 1015.67 1015.99 1016.30 1016.57 1016.76 1016.88 1016.93 1016.90 1016.81 1016.70 1016.58 1016.47 1016.38 1016.32
1012.98 1012.96 1012.94 1012.93 1012.93 1012.96 1013.04 1013.16 1013.32 1013.53 1013.76 1013.99 1014.21 1014.39 1014.53 1014.63 1014.67 1014.68 1014.65 1014.61 1014.56 1014.52 1014.50 1014.50 1014.55 1014.66 1014.82 1015.05 1015.32 1015.63 1015.95 1016.25 1016.50 1016.70 1016.82 1016.87 1016.86 1016.81 1016.72 1016.63 1016.54 1016.46 1016.39
1012.82 1012.78 1012.75 1012.72 1012.70 1012.69 1012.72 1012.79 1012.92 1013.11 1013.37 1013.66 1013.97 1014.28 1014.56 1014.79 1014.95 1015.05 1015.07 1015.03 1014.95 1014.85 1014.76 1014.69 1014.67 1014.71 1014.83 1015.02 1015.27 1015.56 1015.86 1016.14 1016.39 1016.59 1016.72 1016.79 1016.81 1016.79 1016.75 1016.69 1016.63 1016.57 1016.51
1012.61 1012.57 1012.52 1012.47 1012.40 1012.34 1012.29 1012.30 1012.37 1012.52 1012.77 1013.11 1013.51 1013.94 1014.37 1014.76 1015.08 1015.29 1015.40 1015.41 1015.34 1015.20 1015.05 1014.91 1014.82 1014.80 1014.86 1015.00 1015.20 1015.46 1015.73 1016.00 1016.24 1016.43 1016.57 1016.67 1016.72 1016.74 1016.74 1016.73 1016.71 1016.69 1016.65
1012.38 1012.33 1012.28 1012.20 1012.09 1011.96 1011.84 1011.75 1011.74 1011.83 1012.06 1012.41 1012.88 1013.42 1013.99 1014.54 1015.02 1015.38 1015.60 1015.68 1015.63 1015.50 1015.31 1015.11 1014.96 1014.87 1014.87 1014.96 1015.12 1015.34 1015.58 1015.83 1016.06 1016.25 1016.40 1016.51 1016.59 1016.66 1016.70 1016.74 1016.76 1016.77 1016.76
1012.13 1012.09 1012.03 1011.94 1011.79 1011.61 1011.41 1011.23 1011.13 1011.15 1011.32 1011.67 1012.17 1012.79 1013.47 1014.16 1014.78 1015.27 1015.61 1015.77 1015.78 1015.66 1015.47 1015.24 1015.05 1014.91 1014.87 1014.91 1015.03 1015.22 1015.44 1015.66 1015.87 1016.06 1016.22 1016.34 1016.45 1016.54 1016.62 1016.70 1016.76 1016.81 1016.84
1011.87 1011.83 1011.78 1011.69 1011.53 1011.31 1011.06 1010.81 1010.62 1010.56 1010.67 1010.98 1011.47 1012.12 1012.88 1013.65 1014.38 1014.98 1015.41 1015.66 1015.73 1015.65 1015.47 1015.25 1015.04 1014.89 1014.83 1014.85 1014.95 1015.12 1015.32 1015.53 1015.72 1015.90 1016.05 1016.18 1016.30 1016.40 1016.51 1016.61 1016.71 1016.80 1016.87
1011.55 1011.52 1011.49 1011.42 1011.27 1011.04 1010.76 1010.47 1010.22 1010.09 1010.14 1010.39 1010.85 1011.49 1012.26 1013.07 1013.85 1014.52 1015.02 1015.34 1015.47 1015.44 1015.31 1015.12 1014.94 1014.81 1014.76 1014.79 1014.89 1015.05 1015.24 1015.44 1015.63 1015.79 1015.93 1016.05 1016.16 1016.27 1016.38 1016.51 1016.63 1016.75 1016.86
1011.14 1011.13 1011.12 1011.08 1010.96 1010.76 1010.48 1010.18 1009.91 1009.73 1009.72 1009.91 1010.32 1010.91 1011.64 1012.43 1013.22 1013.91 1014.46 1014.82 1015.02 1015.06 1014.99 1014.87 1014.75 1014.67 1014.66 1014.72 1014.85 1015.02 1015.22 1015.41 1015.58 1015.73 1015.85 1015.96 1016.06 1016.16 1016.28 1016.41 1016.55 1016.69 1016.83
1010.64 1010.63 1010.64 1010.63 1010.55 1010.39 1010.16 1009.88 1009.61 1009.42 1009.37 1009.51 1009.84 1010.36 1011.03 1011.77 1012.52 1013.20 1013.76 1014.16 1014.41 1014.53 1014.54 1014.51 1014.47 1014.47 1014.53 1014.65 1014.82 1015.02 1015.23 1015.42 1015.59 1015.72 1015.83 1015.92 1016.01 1016.11 1016.22 1016.35 1016.50 1016.66 1016.82
1010.05 1010.03 1010.04 1010.06 1010.02 1009.91 1009.73 1009.50 1009.27 1009.09 1009.02 1009.11 1009.39 1009.84 1010.42 1011.09 1011.79 1012.44 1012.99 1013.42 1013.72 1013.91 1014.02 1014.09 1014.16 1014.25 1014.39 1014.58 1014.80 1015.03 1015.26 1015.46 1015.62 1015.75 1015.85 1015.93 1016.02 1016.11 1016.23 1016.36 1016.52 1016.68 1016.84
1009.44 1009.38 1009.38 1009.40 1009.39 1009.33 1009.21 1009.03 1008.85 1008.70 1008.64 1008.72 1008.94 1009.33 1009.84 1010.44 1011.07 1011.68 1012.22 1012.68 1013.03 1013.29 1013.50 1013.67 1013.84 1014.03 1014.25 1014.51 1014.78 1015.05 1015.29 1015.50 1015.67 1015.80 1015.90 1015.99 1016.07 1016.18 1016.30 1016.44 1016.61 1016.77 1016.93
1008.88 1008.78 1008.75 1008.75 1008.75 1008.71 1008.63 1008.51 1008.38 1008.27 1008.23 1008.31 1008.51 1008.85 1009.30 1009.84 1010.42 1011.00 1011.53 1012.00 1012.40 1012.74 1013.03 1013.29 1013.55 1013.83 1014.13 1014.44 1014.76 1015.05 1015.32 1015.54 1015.71 1015.85 1015.96 1016.06 1016.16 1016.28 1016.42 1016.58 1016.75 1016.92 1017.08
1008.48 1008.32 1008.24 1008.21 1008.19 1008.16 1008.10 1008.02 1007.92 1007.86 1007.85 1007.94 1008.14 1008.45 1008.86 1009.36 1009.90 1010.45 1010.98 1011.47 1011.91 1012.30 1012.66 1013.00 1013.34 1013.68 1014.04 1014.39 1014.73 1015.04 1015.31 1015.54 1015.72 1015.87 1016.00 1016.12 1016.25 1016.39 1016.56 1016.74 1016.93 1017.10 1017.25
1008.28 1008.08 1007.95 1007.88 1007.82 1007.78 1007.72 1007.65 1007.59 1007.55 1007.57 1007.67 1007.88 1008.18 1008.57 1009.04 1009.56 1010.10 1010.62 1011.12 1011.59 1012.02 1012.43 1012.82 1013.21 1013.59 1013.97 1014.34 1014.69 1015.01 1015.28 1015.52 1015.70 1015.86 1016.00 1016.15 1016.30 1016.47 1016.67 1016.87 1017.08 1017.27 1017.42
1008.29 1008.07 1007.91 1007.79 1007.70 1007.63 1007.55 1007.48 1007.43 1007.41 1007.45 1007.57 1007.78 1008.08 1008.46 1008.91 1009.41 1009.93 1010.45 1010.96 1011.43 1011.88 1012.32 1012.73 1013.14 1013.54 1013.93 1014.31 1014.66 1014.97 1015.23 1015.46 1015.65 1015.81 1015.96 1016.12 1016.29 1016.49 1016.70 1016.93 1017.15 1017.35 1017.52
1008.45 1008.24 1008.07 1007.93 1007.82 1007.72 1007.63 1007.55 1007.50 1007.48 1007.53 1007.66 1007.87 1008.16 1008.54 1008.98 1009.45 1009.96 1010.46 1010.95 1011.41 1011.86 1012.30 1012.72 1013.12 1013.52 1013.91 1014.27 1014.61 1014.91 1015.17 1015.38 1015.57 1015.72 1015.88 1016.04 1016.21 1016.41 1016.64 1016.88 1017.11 1017.33 1017.51
1008.69 1008.52 1008.37 1008.23 1008.11 1008.00 1007.90 1007.81 1007.76 1007.75 1007.80 1007.93 1008.14 1008.42 1008.78 1009.19 1009.64 1010.11 1010.58 1011.04 1011.49 1011.91 1012.32 1012.73 1013.12 1013.51 1013.88 1014.23 1014.55 1014.84 1015.08 1015.29 1015.46 1015.61 1015.75 1015.90 1016.06 1016.25 1016.47 1016.70 1016.94 1017.17 1017.37
1008.90 1008.79 1008.69 1008.59 1008.48 1008.39 1008.29 1008.21 1008.16 1008.15 1008.21 1008.33 1008.53 1008.80 1009.13 1009.51 1009.92 1010.35 1010.77 1011.19 1011.59 1011.98 1012.36 1012.73 1013.10 1013.47 1013.82 1014.16 1014.47 1014.75 1014.99 1015.19 1015.34 1015.47 1015.59 1015.72 1015.85 1016.02 1016.21 1016.43 1016.66 1016.89 1017.10
1009.01 1008.97 1008.94 1008.89 1008.84 1008.77 1008.70 1008.64 1008.61 1008.62 1008.67 1008.80 1008.98 1009.23 1009.53 1009.87 1010.23 1010.60 1010.98 1011.34 1011.69 1012.03 1012.37 1012.71 1013.06 1013.40 1013.74 1014.07 1014.38 1014.65 1014.89 1015.07 1015.22 1015.33 1015.43 1015.52 1015.62 1015.75 1015.90 1016.09 1016.30 1016.52 1016.73
1008.99 1009.03 1009.07 1009.09 1009.09 1009.08 1009.06 1009.04 1009.03 1009.06 1009.13 1009.26 1009.43 1009.65 1009.92 1010.21 1010.52 1010.84 1011.16 1011.46 1011.76 1012.05 1012.35 1012.66 1012.98 1013.30 1013.63 1013.96 1014.26 1014.54 1014.77 1014.95 1015.09 1015.19 1015.26 1015.32 1015.38 1015.47 1015.58 1015.73 1015.91 1016.11 1016.31
1008.90 1008.99 1009.09 1009.17 1009.24 1009.28 1009.32 1009.35 1009.38 1009.44 1009.53 1009.66 1009.82 1010.03 1010.26 1010.51 1010.77 1011.03 1011.29 1011.54 1011.79 1012.04 1012.30 1012.58 1012.87 1013.18 1013.50 1013.82 1014.13 1014.40 1014.63 1014.81 1014.95 1015.03 1015.09 1015.12 1015.16 1015.21 1015.29 1015.40 1015.54 1015.71 1015.87
1008.79 1008.92 1009.05 1009.18 1009.30 1009.40 1009.48 1009.56 1009.64 1009.73 1009.84 1009.97 1010.14 1010.32 1010.52 1010.74 1010.96 1011.17 1011.38 1011.59 1011.80 1012.01 1012.24 1012.49 1012.76 1013.06 1013.36 1013.67 1013.96 1014.23 1014.47 1014.65 1014.78 1014.87 1014.91 1014.94 1014.96 1014.99 1015.04 1015.12 1015.22 1015.34 1015.47
Thickness
5730 5729 5728 5725 5726 5725 5724 5723 5724 5722 5722 5722 5723 5723 5722 5723 5723 5722 5720 5716 5714 5713 5713 5713 5713 5712 5712 5711 5711 5709 5709 5708 5707 5706 5705 5705 5704 5704 5703 5703 5702 5702 5702
5727 5726 5724 5723 5723 5722 5721 5720 5720 5719 5719 5719 5720 5719 5718 5719 5718 5717 5717 5715 5712 5711 5710 5710 5710 5709 5709 5708 5708 5707 5706 5704 5703 5702 5702 5701 5701 5700 5700 5700 5700 5700 5699
5724 5723 5723 5721 5720 5719 5717 5717 5716 5717 5716 5717 5716 5716 5716 5715 5715 5714 5714 5714 5712 5709 5708 5707 5706 5706 5705 5705 5704 5703 5702 5701 5700 5699 5698 5698 5698 5697 5697 5697 5697 5696 5696
5720 5720 5720 5719 5717 5716 5716 5715 5715 5715 5714 5714 5713 5714 5714 5712 5712 5711 5711 5710 5710 5709 5706 5704 5703 5702 5701 5701 5700 5698 5697 5696 5696 5695 5695 5694 5694 5694 5694 5694 5693 5693 5693
5717 5717 5717 5715 5714 5714 5714 5714 5713 5712 5710 5709 5710 5710 5711 5711 5710 5710 5708 5708 5707 5706 5705 5702 5700 5699 5698 5697 5695 5694 5693 5692 5692 5691 5691 5691 5691 5691 5691 5690 5690 5690 5690
5715 5715 5714 5712 5712 5711 5710 5710 5708 5707 5707 5706 5708 5708 5708 5709 5708 5707 5706 5705 5705 5704 5703 5702 5700 5697 5694 5693 5691 5690 5688 5688 5687 5687 5687 5687 5688 5687 5687 5686 5687 5686 5687
5712 5711 5712 5709 5709 5709 5707 5707 5706 5704 5703 5703 5703 5702 5703 5705 5704 5703 5703 5703 5702 5701 5700 5699 5699 5697 5694 5689 5687 5686 5685 5684 5684 5684 5683 5683 5683 5683 5683 5683 5683 5683 5683
5708 5709 5708 5707 5706 5705 5703 5703 5701 5701 5701 5701 5699 5698 5696 5697 5698 5701 5699 5698 5698 5698 5698 5697 5694 5692 5692 5690 5685 5683 5681 5680 5680 5680 5679 5679 5679 5679 5679 5679 5679 5679 5679
5706 5705 5704 5704 5703 5703 5701 5699 5698 5696 5697 5698 5698 5696 5693 5692 5693 5695 5694 5694 5694 5694 5694 5693 5690 5689 5687 5686 5683 5679 5678 5677 5676 5676 5675 5675 5674 5675 5675 5675 5676 5676 5675
5703 5702 5701 5700 5699 5700 5697 5696 5696 5695 5693 5693 5693 5693 5692 5692 5687 5687 5689 5690 5689 5688 5689 5689 5687 5684 5682 5682 5679 5676 5674 5673 5672 5672 5671 5671 5670 5671 5671 5671 5671 5671 5671
5700 5699 5697 5696 5695 5695 5693 5692 5691 5691 5690 5689 5689 5689 5687 5686 5686 5684 5682 5684 5685 5686 5685 5684 5683 5682 5679 5678 5676 5673 5671 5669 5668 5667 5667 5666 5666 5666 5666 5667 5667 5667 5667
5696 5695 5694 5693 5692 5691 5689 5688 5687 5686 5685 5684 5684 5685 5684 5683 5682 5682 5679 5677 5678 5680 5681 5680 5680 5678 5676 5675 5673 5669 5667 5666 5665 5664 5663 5663 5662 5662 5662 5663 5663 5663 5663
5693 5690 5690 5688 5689 5687 5685 5684 5682 5682 5681 5679 5679 5679 5680 5680 5680 5679 5677 5675 5674 5676 5676 5677 5678 5676 5674 5672 5669 5665 5664 5662 5661 5660 5660 5659 5658 5657 5657 5658 5658 5657 5657
5691 5688 5686 5685 5685 5684 5682 5680 5679 5678 5676 5675 5676 5674 5675 5676 5676 5675 5673 5672 5670 5672 5673 5672 5674 5673 5671 5669 5666 5663 5662 5660 5658 5657 5656 5655 5654 5653 5653 5652 5652 5652 5651
5688 5685 5684 5683 5682 5680 5679 5677 5676 5674 5674 5673 5673 5672 5671 5672 5672 5671 5671 5670 5667 5665 5667 5669 5669 5669 5667 5665 5662 5661 5661 5658 5656 5655 5654 5652 5651 5650 5649 5648 5647 5646 5645
5684 5682 5682 5681 5678 5677 5675 5674 5673 5672 5670 5669 5668 5667 5666 5668 5668 5667 5667 5667 5666 5664 5664 5668 5666 5667 5663 5662 5659 5659 5658 5656 5654 5653 5651 5649 5648 5647 5645 5644 5643 5642 5640
5680 5679 5679 5678 5676 5674 5672 5671 5671 5670 5668 5666 5665 5664 5663 5662 5664 5664 5663 5663 5663 5662 5659 5663 5665 5664 5659 5658 5657 5656 5656 5654 5654 5651 5648 5646 5644 5643 5642 5640 5638 5637 5636
5678 5677 5677 5675 5674 5672 5670 5669 5668 5667 5666 5664 5663 5661 5660 5660 5658 5659 5659 5659 5659 5658 5656 5655 5658 5659 5656 5655 5654 5653 5654 5654 5651 5648 5646 5643 5641 5639 5638 5636 5634 5632 5631
5676 5675 5674 5672 5671 5670 5669 5668 5666 5665 5664 5663 5661 5659 5658 5657 5655 5656 5654 5655 5656 5656 5654 5653 5654 5654 5654 5654 5651 5651 5651 5649 5649 5647 5644 5641 5639 5637 5635 5632 5630 5628 5626
5673 5672 5671 5670 5669 5669 5668 5667 5665 5664 5662 5661 5660 5658 5657 5655 5653 5652 5651 5650 5651 5651 5651 5651 5651 5651 5651 5651 5649 5648 5647 5648 5647 5646 5643 5640 5637 5634 5632 5630 5627 5624 5621
5672 5670 5669 5668 5668 5668 5668 5666 5664 5663 5661 5660 5658 5657 5656 5653 5650 5648 5649 5648 5648 5647 5648 5648 5648 5648 5648 5646 5646 5646 5645 5645 5644 5643 5641 5640 5637 5634 5631 5626 5623 5620 5617
5671 5669 5668 5667 5666 5668 5663 5660 5660 5661 5659 5657 5656 5655 5654 5651 5648 5645 5643 5642 5642 5643 5644 5643 5644 5643 5642 5643 5642 5642 5641 5640 5639 5640 5637 5636 5635 5632 5629 5626 5621 5616 5613
5669 5668 5667 5666 5665 5663 5659 5657 5655 5656 5657 5655 5654 5652 5653 5653 5648 5647 5643 5640 5639 5638 5636 5638 5639 5639 5639 5640 5638 5638 5637 5636 5635 5636 5632 5631 5631 5628 5627 5624 5618 5614 5610
5668 5667 5666 5665 5664 5662 5658 5655 5653 5654 5655 5654 5652 5651 5649 5648 5648 5644 5644 5643 5642 5640 5637 5636 5636 5636 5637 5635 5634 5634 5633 5632 5632 5632 5629 5626 5627 5625 5625 5621 5616 5612 5608
5667 5666 5666 5664 5663 5660 5656 5654 5650 5654 5654 5653 5652 5651 5649 5647 5642 5640 5640 5641 5640 5639 5636 5633 5632 5631 5630 5629 5628 5629 5630 5630 5630 5631 5628 5623 5622 5621 5620 5619 5615 5610 5606
5666 5666 5665 5664 5663 5661 5656 5653 5649 5654 5653 5653 5652 5651 5646 5645 5640 5637 5638 5638 5637 5637 5636 5634 5630 5629 5629 5628 5625 5625 5627 5627 5627 5625 5625 5619 5618 5617 5614 5615 5613 5609 5605